When you browse on this site, cookies collect data to enhance your experience and personalize the content and advertising you see.
Visit our Privacy Policy to learn more. By continuing to use the site, you agree to this use of cookies and data.
  • en Suisse
  • Liste des pays
  • À 7 jours
  • Température de l'eau
  • Carte satellitaire
  • Carte météo
  • Widgets météo
  • user-avatar
    Se connecter

    Météo par heure à Tolstoi

    Ce jour, 19 Février, Mardi

    Heure Température Précipitation Vent Pression Humidité
    00:00 -3°C° 0 mm 4 m/s 758 mmHg 67%
    01:00 -2°C° 0 mm 3 m/s 758 mmHg 68%
    02:00 -3°C° 0 mm 2 m/s 759 mmHg 70%
    03:00 -3°C° 0 mm 2 m/s 759 mmHg 71%
    04:00 -3°C° 0 mm 2 m/s 759 mmHg 73%
    05:00 -3°C° 0 mm 2 m/s 759 mmHg 75%
    06:00 -3°C° 0 mm 2 m/s 759 mmHg 73%
    07:00 -3°C° 0 mm 2 m/s 760 mmHg 71%
    08:00 -3°C° 0 mm 2 m/s 760 mmHg 69%
    09:00 0°C° 0 mm 1 m/s 760 mmHg 63%
    10:00 +1°C° 0 mm 1 m/s 761 mmHg 57%
    11:00 +1°C° 0 mm 0 m/s 761 mmHg 51%
    12:00 +2°C° 0 mm 0 m/s 761 mmHg 49%
    13:00 +3°C° 0 mm 1 m/s 760 mmHg 47%
    14:00 +4°C° 0 mm 1 m/s 760 mmHg 45%
    15:00 +3°C° 0 mm 1 m/s 760 mmHg 49%
    16:00 +2°C° 0 mm 1 m/s 760 mmHg 52%
    17:00 +2°C° 0 mm 1 m/s 760 mmHg 55%
    18:00 +1°C° 0 mm 1 m/s 760 mmHg 57%
    19:00 -1°C° 0 mm 2 m/s 760 mmHg 58%
    20:00 -1°C° 0 mm 2 m/s 760 mmHg 60%
    21:00 -1°C° 0 mm 3 m/s 759 mmHg 63%
    22:00 -2°C° 0 mm 3 m/s 759 mmHg 66%
    23:00 -2°C° 0 mm 3 m/s 759 mmHg 70%

    Demain, 20 Février, Mercredi

    Heure Température Précipitation Vent Pression Humidité
    00:00 -2°C° 0 mm 3 m/s 758 mmHg 69%
    01:00 -2°C° 0 mm 3 m/s 758 mmHg 68%
    02:00 -2°C° 0 mm 3 m/s 758 mmHg 67%
    03:00 -4°C° 0 mm 3 m/s 757 mmHg 68%
    04:00 -4°C° 0 mm 3 m/s 757 mmHg 68%
    05:00 -4°C° 0 mm 3 m/s 756 mmHg 69%
    06:00 -3°C° 0 mm 4 m/s 756 mmHg 67%
    07:00 -3°C° 0 mm 4 m/s 756 mmHg 66%
    08:00 -2°C° 0 mm 5 m/s 756 mmHg 65%
    09:00 -1°C° 0 mm 5 m/s 755 mmHg 59%
    10:00 +1°C° 0 mm 5 m/s 755 mmHg 53%
    11:00 +2°C° 0 mm 5 m/s 755 mmHg 47%
    12:00 +3°C° 0 mm 5 m/s 754 mmHg 49%
    13:00 +3°C° 0 mm 5 m/s 754 mmHg 51%
    14:00 +5°C° 0 mm 5 m/s 753 mmHg 53%
    15:00 +3°C° 0 mm 5 m/s 753 mmHg 60%
    16:00 +3°C° 0 mm 4 m/s 753 mmHg 67%
    17:00 +1°C° 0 mm 4 m/s 752 mmHg 74%
    18:00 +1°C° 0 mm 4 m/s 752 mmHg 74%
    19:00 +1°C° 0 mm 5 m/s 752 mmHg 75%
    20:00 +1°C° 0 mm 5 m/s 752 mmHg 75%
    21:00 +1°C° 0 mm 5 m/s 752 mmHg 77%
    22:00 +1°C° 0 mm 5 m/s 751 mmHg 78%
    23:00 +1°C° 0 mm 6 m/s 751 mmHg 80%

    Après-demain, 21 Février, Jeudi

    Heure Température Précipitation Vent Pression Humidité
    00:00 +1°C° 0.1 mm 5 m/s 751 mmHg 84%
    01:00 +1°C° 0.1 mm 5 m/s 751 mmHg 88%
    02:00 +2°C° 0.1 mm 5 m/s 751 mmHg 93%
    03:00 +1°C° 0 mm 4 m/s 750 mmHg 94%
    04:00 +1°C° 0 mm 4 m/s 750 mmHg 94%
    05:00 +1°C° 0 mm 3 m/s 750 mmHg 95%
    06:00 0°C° 0 mm 4 m/s 750 mmHg 91%
    07:00 0°C° 0 mm 5 m/s 750 mmHg 88%
    08:00 0°C° 0 mm 5 m/s 750 mmHg 84%
    09:00 +1°C° 0 mm 6 m/s 750 mmHg 79%
    10:00 +2°C° 0 mm 7 m/s 750 mmHg 73%
    11:00 +3°C° 0 mm 7 m/s 750 mmHg 68%
    12:00 +1°C° 0.1 mm 8 m/s 750 mmHg 64%
    13:00 +1°C° 0.1 mm 8 m/s 750 mmHg 60%
    14:00 +1°C° 0.1 mm 8 m/s 750 mmHg 56%
    15:00 0°C° 0 mm 8 m/s 750 mmHg 58%
    16:00 -1°C° 0 mm 8 m/s 750 mmHg 59%
    17:00 -2°C° 0 mm 7 m/s 751 mmHg 60%
    18:00 -3°C° 0 mm 7 m/s 751 mmHg 61%
    19:00 -3°C° 0 mm 6 m/s 751 mmHg 63%
    20:00 -3°C° 0 mm 6 m/s 751 mmHg 64%
    21:00 -4°C° 0 mm 5 m/s 751 mmHg 66%
    22:00 -4°C° 0 mm 5 m/s 751 mmHg 68%
    23:00 -4°C° 0 mm 4 m/s 751 mmHg 70%

    22 Février, Vendredi

    Heure Température Précipitation Vent Pression Humidité
    00:00 -3°C° 0 mm 4 m/s 751 mmHg 69%
    01:00 -3°C° 0 mm 4 m/s 752 mmHg 68%
    02:00 -3°C° 0 mm 4 m/s 752 mmHg 67%
    03:00 -3°C° 0 mm 4 m/s 752 mmHg 68%
    04:00 -3°C° 0 mm 4 m/s 752 mmHg 68%
    05:00 -4°C° 0 mm 4 m/s 751 mmHg 69%
    06:00 -4°C° 0 mm 4 m/s 752 mmHg 65%
    07:00 -4°C° 0 mm 4 m/s 752 mmHg 61%
    08:00 -4°C° 0 mm 4 m/s 752 mmHg 58%
    09:00 -3°C° 0 mm 4 m/s 752 mmHg 55%
    10:00 -3°C° 0 mm 4 m/s 752 mmHg 53%
    11:00 -2°C° 0 mm 4 m/s 752 mmHg 51%
    12:00 -2°C° 0 mm 4 m/s 752 mmHg 53%
    13:00 -2°C° 0 mm 4 m/s 752 mmHg 55%
    14:00 -2°C° 0 mm 4 m/s 752 mmHg 57%
    15:00 -3°C° 0 mm 4 m/s 752 mmHg 61%
    16:00 -3°C° 0 mm 4 m/s 753 mmHg 64%
    17:00 -4°C° 0 mm 4 m/s 753 mmHg 68%
    18:00 -6°C° 0.1 mm 6 m/s 754 mmHg 69%
    19:00 -7°C° 0.1 mm 7 m/s 754 mmHg 69%
    20:00 -8°C° 0.1 mm 8 m/s 755 mmHg 70%
    21:00 -10°C° 0 mm 8 m/s 755 mmHg 65%
    22:00 -11°C° 0 mm 8 m/s 756 mmHg 61%
    23:00 -12°C° 0 mm 7 m/s 756 mmHg 57%

    23 Février, Samedi

    Heure Température Précipitation Vent Pression Humidité
    00:00 -12°C° 0 mm 7 m/s 756 mmHg 56%
    01:00 -12°C° 0 mm 7 m/s 757 mmHg 56%
    02:00 -12°C° 0 mm 7 m/s 757 mmHg 56%
    03:00 -12°C° 0 mm 7 m/s 757 mmHg 56%
    04:00 -13°C° 0 mm 7 m/s 757 mmHg 57%
    05:00 -13°C° 0 mm 7 m/s 758 mmHg 57%
    06:00 -13°C° 0 mm 7 m/s 758 mmHg 57%
    07:00 -13°C° 0 mm 7 m/s 758 mmHg 57%
    08:00 -13°C° 0 mm 7 m/s 759 mmHg 56%
    09:00 -12°C° 0 mm 7 m/s 759 mmHg 54%
    10:00 -11°C° 0 mm 6 m/s 759 mmHg 51%
    11:00 -10°C° 0 mm 6 m/s 759 mmHg 48%
    12:00 -10°C° 0 mm 6 m/s 759 mmHg 47%
    13:00 -9°C° 0 mm 6 m/s 759 mmHg 47%
    14:00 -9°C° 0 mm 6 m/s 759 mmHg 46%
    15:00 -10°C° 0 mm 6 m/s 759 mmHg 48%
    16:00 -10°C° 0 mm 5 m/s 760 mmHg 51%
    17:00 -11°C° 0 mm 5 m/s 760 mmHg 53%
    18:00 -11°C° 0 mm 5 m/s 760 mmHg 54%
    19:00 -11°C° 0 mm 5 m/s 760 mmHg 56%
    20:00 -12°C° 0 mm 5 m/s 761 mmHg 57%
    21:00 -12°C° 0 mm 5 m/s 761 mmHg 58%
    22:00 -12°C° 0 mm 5 m/s 761 mmHg 59%
    23:00 -12°C° 0 mm 5 m/s 761 mmHg 60%

    24 Février, Dimanche

    Heure Température Précipitation Vent Pression Humidité
    00:00 -12°C° 0 mm 4 m/s 761 mmHg 61%
    01:00 -12°C° 0 mm 4 m/s 761 mmHg 62%
    02:00 -12°C° 0 mm 4 m/s 761 mmHg 63%
    03:00 -12°C° 0 mm 4 m/s 761 mmHg 65%
    04:00 -14°C° 0 mm 4 m/s 761 mmHg 66%
    05:00 -14°C° 0 mm 4 m/s 761 mmHg 68%
    06:00 -14°C° 0 mm 4 m/s 761 mmHg 68%
    07:00 -14°C° 0 mm 4 m/s 761 mmHg 68%
    08:00 -13°C° 0 mm 5 m/s 762 mmHg 68%
    09:00 -13°C° 0 mm 5 m/s 762 mmHg 64%
    10:00 -12°C° 0 mm 5 m/s 762 mmHg 60%
    11:00 -11°C° 0 mm 5 m/s 762 mmHg 56%
    12:00 -10°C° 0 mm 5 m/s 761 mmHg 54%
    13:00 -10°C° 0 mm 5 m/s 761 mmHg 52%
    14:00 -8°C° 0 mm 5 m/s 761 mmHg 51%
    15:00 -10°C° 0 mm 5 m/s 761 mmHg 53%
    16:00 -10°C° 0 mm 5 m/s 761 mmHg 56%
    17:00 -10°C° 0 mm 5 m/s 761 mmHg 59%
    18:00 -10°C° 0 mm 5 m/s 761 mmHg 61%
    19:00 -9°C° 0 mm 4 m/s 761 mmHg 64%
    20:00 -9°C° 0 mm 4 m/s 761 mmHg 66%
    21:00 -9°C° 0 mm 4 m/s 761 mmHg 69%
    22:00 -9°C° 0 mm 4 m/s 761 mmHg 71%
    23:00 -9°C° 0 mm 4 m/s 760 mmHg 73%
    Voir plus